Theta_e
313 313 313 314 315 319 322 326 323 320 322 317 318 319 318 320 321 322 320 320 321 320 320 320 320 319 320 320 319 319 319 320 320 319 320 321 319 318 319 318 318 319 318 331 337 331 335 337 338 340 340 340 339 338 337 337 337 337 337 337 338 336 335 333 334 333 331 332 330 325 322 319 319 319 319 320 319 320 323 327 328 329 330 330 331 333 334 334 332 331 329 326 322 318 318 319 321
313 313 313 314 316 324 326 326 321 317 318 315 318 320 318 321 321 321 320 320 321 319 320 320 320 319 319 320 320 320 319 319 320 319 321 322 323 319 317 319 318 319 320 332 337 331 334 337 336 339 339 339 339 339 338 337 337 337 337 336 336 337 336 335 335 333 332 333 330 326 322 319 319 320 320 320 321 321 321 323 325 327 330 330 331 333 334 333 332 331 330 328 326 324 322 322 321
313 313 314 317 321 325 326 324 319 316 315 314 316 319 320 321 320 319 320 320 320 319 320 320 320 320 320 321 320 320 319 319 319 320 322 323 325 320 316 319 318 319 322 332 337 332 335 338 336 337 338 338 339 338 338 338 337 337 337 336 336 337 336 336 336 333 333 334 332 328 323 320 320 320 321 324 324 323 321 322 323 325 329 330 331 332 333 333 332 331 330 329 328 327 326 325 320
314 314 316 323 326 324 324 323 320 316 314 314 315 319 321 320 319 319 320 320 320 320 320 320 320 319 320 320 319 320 319 319 319 320 323 320 319 318 316 319 318 319 321 330 337 334 337 338 334 336 337 337 338 337 338 337 337 337 337 336 336 337 336 336 335 333 333 334 334 330 325 321 321 322 325 327 326 325 322 322 321 324 328 330 331 331 332 332 331 330 328 326 326 326 325 322 316
317 317 318 324 327 324 323 322 319 318 315 316 316 318 320 319 318 319 320 320 320 319 319 320 319 318 320 319 319 320 319 320 320 320 322 320 316 316 317 318 318 319 319 327 336 337 337 337 333 334 336 337 337 337 337 336 337 337 337 336 336 336 335 335 334 333 332 333 333 332 327 321 324 328 329 328 326 326 323 322 321 323 327 330 330 329 331 329 326 322 319 319 320 321 319 316 312
318 320 320 322 325 323 322 319 317 317 318 319 317 318 318 318 318 319 319 319 319 318 318 319 319 319 319 318 318 319 318 319 320 320 319 319 316 316 316 317 318 319 319 324 335 338 336 334 330 333 337 336 337 337 335 336 337 337 337 336 337 336 334 333 333 333 332 331 330 331 328 323 328 332 331 329 328 327 324 322 321 322 324 327 326 325 326 323 319 314 312 312 313 314 313 312 310
320 323 323 322 322 323 323 318 317 317 318 320 318 318 318 318 319 319 319 318 318 318 317 318 318 318 318 318 318 318 318 318 319 319 318 317 316 315 316 316 318 319 320 321 331 335 332 332 330 332 336 335 336 337 335 336 337 337 336 336 336 336 335 333 333 333 332 331 328 328 326 324 330 332 330 329 329 328 326 324 322 323 324 323 322 321 320 317 318 314 309 309 310 310 310 310 309
320 324 323 324 323 322 322 318 319 319 317 319 319 319 319 319 319 319 319 318 318 318 317 318 318 318 318 318 320 318 316 317 317 318 318 317 315 315 315 316 317 318 320 320 326 329 324 329 331 332 336 335 336 336 336 336 337 337 336 335 334 335 334 333 331 332 331 330 330 329 328 327 329 331 329 328 328 329 329 327 324 323 323 321 319 318 317 319 321 315 307 308 308 309 310 309 307
320 323 323 324 323 320 320 319 319 319 318 319 319 318 318 318 318 319 318 318 317 318 317 317 318 317 318 318 320 318 316 315 316 316 317 317 315 315 315 315 316 317 320 320 324 325 321 326 329 331 334 335 336 336 336 336 337 337 336 335 333 333 333 332 329 329 329 330 331 332 331 330 328 328 329 329 329 329 330 330 327 324 322 321 319 319 320 322 322 314 307 307 307 308 309 307 305
322 322 323 324 321 318 318 318 318 319 319 319 319 318 318 318 318 318 318 318 317 318 317 317 318 317 318 318 319 318 315 315 315 315 316 316 315 315 315 315 315 316 318 319 322 322 320 323 326 329 331 334 335 335 336 336 336 337 336 334 333 332 331 329 327 326 328 330 330 331 332 331 328 326 329 330 331 331 330 331 330 327 326 324 323 323 324 324 322 314 308 306 306 308 307 305 305
322 321 323 322 318 316 316 317 319 320 319 318 319 319 318 318 318 318 318 318 318 318 318 317 318 317 317 319 318 316 314 314 315 315 315 315 315 315 315 315 316 315 316 317 318 319 319 321 324 326 328 331 333 334 335 335 335 336 335 334 333 332 330 328 326 325 326 329 329 329 330 329 328 327 328 330 332 332 331 331 331 330 329 328 327 328 327 324 322 315 309 307 305 307 306 305 304
322 320 321 320 318 317 318 319 319 320 319 318 318 318 317 317 318 319 319 318 318 318 318 317 318 317 317 319 318 316 314 314 314 314 315 315 316 316 315 315 315 315 315 315 316 318 319 320 322 324 326 328 331 333 334 334 335 335 335 334 333 332 332 330 326 325 324 326 327 327 328 327 327 326 327 328 331 332 331 332 331 331 331 330 330 330 329 325 323 317 311 308 305 306 306 304 304
321 321 320 319 320 320 319 320 320 320 319 319 318 317 316 317 318 319 319 319 318 319 318 317 317 317 318 318 317 316 315 314 314 314 314 315 315 316 316 315 315 315 316 315 316 316 316 318 320 322 324 326 328 330 332 334 335 334 334 334 333 331 332 331 327 325 324 324 325 325 327 326 326 324 325 328 329 330 331 331 331 331 331 332 331 330 329 327 326 321 313 309 306 305 306 304 304
320 321 320 320 320 320 319 320 320 319 318 319 318 317 316 317 318 317 318 319 318 317 317 316 316 317 317 317 317 316 315 314 314 314 314 314 315 315 316 316 315 315 316 316 316 315 316 316 317 318 321 325 327 327 329 332 334 334 334 334 334 331 331 331 329 327 325 324 324 325 325 325 324 323 324 327 328 330 330 331 331 331 331 332 331 330 329 328 328 323 315 311 308 305 305 304 303
319 320 319 320 318 318 319 320 319 318 318 319 317 317 317 317 317 317 317 318 317 316 316 316 316 316 317 317 317 316 315 314 314 314 314 314 314 315 316 316 316 315 315 316 316 316 316 315 316 316 318 324 328 330 330 330 331 332 334 335 334 333 331 331 330 328 327 325 325 324 325 325 325 323 323 325 327 329 330 331 330 329 330 330 329 328 328 328 327 324 317 313 310 306 305 304 303
317 320 320 318 317 317 319 321 320 318 319 319 317 317 317 317 316 317 317 316 317 316 316 316 315 315 315 315 315 314 314 314 314 314 314 314 314 314 315 316 317 316 315 315 316 316 316 316 316 315 316 319 327 333 334 331 330 331 332 334 333 333 333 333 331 329 328 326 326 325 325 325 324 324 323 323 325 327 328 328 327 327 327 327 326 325 325 326 326 324 321 317 313 308 306 305 303
314 319 319 316 316 316 318 319 319 318 319 319 318 317 318 318 316 317 316 316 317 317 316 315 315 314 314 314 314 313 314 314 314 314 314 314 314 315 315 315 316 317 316 315 315 316 316 316 316 316 316 315 321 329 334 333 332 330 331 332 332 332 334 334 333 331 328 327 326 325 326 325 325 327 326 325 325 324 324 323 324 326 325 325 323 322 321 321 324 324 323 320 315 310 307 305 304
318 321 317 316 316 317 319 319 319 320 319 319 318 318 318 318 317 317 317 316 317 317 315 314 314 314 314 314 313 313 313 313 313 313 313 313 314 314 314 315 316 316 316 316 315 315 315 316 316 316 317 316 317 321 328 332 332 331 331 331 331 331 333 334 334 332 329 328 327 326 325 324 326 328 328 327 327 325 324 323 324 326 326 325 324 322 320 320 324 325 323 320 317 314 310 307 306
320 320 317 318 318 319 320 320 320 320 319 319 318 318 318 318 318 317 317 318 318 317 316 314 315 314 314 313 313 313 312 313 313 313 313 313 313 313 314 314 315 315 316 316 316 315 315 315 316 316 317 316 316 316 323 330 330 331 332 331 331 331 332 334 334 333 331 330 330 328 325 325 327 328 327 327 326 325 325 324 324 325 326 326 325 324 323 324 326 325 323 321 318 316 313 309 308
320 320 319 319 318 319 319 319 319 318 319 319 318 317 317 318 317 317 317 318 318 318 316 316 317 315 313 312 312 312 312 313 312 312 312 312 313 313 313 314 314 314 315 315 316 316 315 315 315 316 316 316 317 316 319 327 328 331 332 331 332 332 332 332 333 333 333 332 331 330 329 329 329 330 329 327 326 325 324 323 324 325 325 325 324 324 326 327 327 327 325 323 320 318 316 313 311
321 320 320 318 317 318 317 318 318 317 318 318 318 317 317 318 316 317 317 317 318 318 316 315 315 313 313 312 312 312 312 312 313 313 312 312 313 312 313 313 313 313 313 314 314 315 315 315 315 316 316 316 317 317 317 322 325 328 330 331 332 333 332 332 333 333 333 333 332 332 331 331 331 331 330 329 328 327 326 326 326 325 325 325 323 323 327 329 328 328 327 324 323 320 318 317 315
320 319 319 317 317 319 317 317 317 316 316 317 317 317 317 317 316 317 317 317 317 316 314 313 313 312 312 311 311 312 312 312 313 313 313 313 313 313 313 312 313 313 313 313 313 314 314 314 315 315 315 316 316 317 318 319 323 327 329 331 332 332 332 332 333 333 333 333 333 332 332 332 332 331 330 330 330 330 330 330 329 328 326 325 324 324 328 329 329 328 327 325 324 322 320 319 318
319 319 318 318 318 318 318 317 316 316 316 317 317 317 316 316 316 317 316 317 315 313 312 312 311 311 311 311 311 311 311 312 312 313 313 313 313 313 313 313 313 313 313 313 313 313 313 313 314 314 314 315 316 318 319 320 326 330 329 329 330 330 330 332 332 332 332 332 333 332 331 332 331 330 330 330 330 330 331 331 330 329 326 324 325 326 328 329 328 328 327 326 325 325 323 321 320
319 319 318 318 317 317 318 317 316 315 316 316 316 316 316 316 316 316 315 314 312 311 311 311 311 310 310 311 311 311 311 312 312 312 313 313 313 313 313 313 313 313 313 313 313 313 313 314 313 314 313 313 316 317 319 324 328 330 329 329 329 328 328 329 330 332 333 334 333 331 330 331 330 331 331 330 330 330 330 330 330 328 326 325 326 327 327 327 326 327 327 326 326 325 324 323 322
319 318 318 317 316 317 317 316 315 315 315 316 315 315 316 316 315 315 315 312 311 311 310 310 310 309 309 310 310 311 311 312 312 312 312 312 312 312 312 312 312 312 313 313 313 313 313 314 314 315 313 315 320 321 323 327 328 329 330 329 329 328 327 327 328 331 333 333 331 330 330 331 331 331 331 331 331 331 332 332 331 329 326 326 327 327 326 324 323 325 327 327 327 325 324 323 322
318 318 317 317 317 317 316 316 316 316 315 315 314 315 316 315 314 314 314 311 310 310 310 309 309 308 309 310 310 311 311 311 312 312 312 312 312 312 312 312 312 312 312 312 312 313 314 315 315 315 317 321 325 326 327 328 328 329 330 328 327 328 328 327 327 329 330 329 327 327 328 330 330 329 330 330 330 331 333 332 331 330 327 324 324 324 324 323 323 324 326 327 326 325 324 324 323
316 317 317 317 318 317 316 316 317 315 315 314 314 316 316 313 313 314 312 309 309 309 309 309 308 308 309 309 310 310 311 311 311 311 312 312 311 311 311 311 312 312 312 312 312 313 314 315 316 315 317 321 325 326 326 326 326 328 329 327 327 328 328 327 328 331 331 329 328 328 328 328 329 329 329 330 329 330 332 331 329 328 327 324 323 322 322 323 326 326 325 325 326 326 325 324 323
316 316 317 318 318 317 317 317 316 315 315 314 314 316 315 312 313 314 312 309 309 309 309 308 308 309 309 309 310 309 310 310 310 311 311 311 311 311 311 311 312 312 312 312 313 314 314 315 316 317 317 318 321 324 324 324 324 326 327 328 329 328 328 327 328 330 329 329 329 330 330 329 330 330 330 330 330 331 331 328 325 324 324 324 324 323 322 324 326 326 325 325 326 326 325 324 323
316 316 317 319 319 318 318 317 315 315 315 314 314 315 315 313 313 313 310 309 309 309 309 309 308 309 309 309 309 309 309 309 310 310 310 310 310 310 311 311 311 312 312 313 314 315 316 316 317 318 319 320 321 324 324 323 324 328 328 328 330 330 329 328 327 327 326 326 326 328 329 330 330 330 330 330 330 330 329 327 324 323 324 326 326 324 324 325 325 325 325 325 326 325 325 324 324
316 316 317 318 320 319 318 316 314 315 314 313 314 316 317 316 313 311 309 309 309 310 310 309 308 308 308 308 308 308 308 309 309 309 310 310 310 311 311 312 312 312 313 314 315 316 317 318 320 321 322 323 323 325 326 324 323 326 326 326 328 330 330 328 326 325 325 324 324 324 326 328 329 328 329 328 328 328 328 327 325 324 325 326 326 325 325 325 326 326 325 326 325 325 325 324 323
317 318 318 318 319 318 317 316 316 315 314 313 314 316 318 316 312 310 309 309 310 311 311 310 309 308 308 308 307 308 309 309 309 309 310 310 310 310 311 312 313 314 314 315 316 318 319 319 321 322 322 323 323 324 326 326 324 324 324 323 325 327 327 325 324 324 324 323 322 322 323 325 326 326 326 325 325 326 326 325 325 324 324 324 325 325 325 325 325 324 324 325 324 323 323 322 322
318 317 318 320 319 318 317 316 316 316 314 313 314 316 318 315 312 311 309 309 310 312 312 310 309 308 307 307 307 308 308 309 309 309 309 310 310 311 311 313 315 316 317 318 318 319 320 320 321 321 321 322 322 322 324 325 324 324 324 323 322 323 323 322 322 323 322 322 321 322 322 322 323 324 324 323 323 324 324 324 324 324 324 324 325 325 324 324 323 323 323 323 322 322 322 322 322
319 318 318 320 320 320 318 316 316 316 314 314 315 317 319 316 313 311 309 310 310 311 313 311 309 308 307 307 307 307 308 308 308 309 309 310 311 312 312 314 316 317 318 319 320 319 319 320 321 321 321 321 321 321 322 322 322 323 323 321 321 322 322 321 321 322 322 323 323 323 323 323 323 323 323 323 323 323 323 323 323 323 323 323 323 323 323 323 322 322 322 321 322 322 321 321 321
320 320 319 319 320 319 318 316 316 316 315 316 315 316 318 316 313 311 310 310 311 311 312 311 309 308 307 307 307 307 307 307 308 308 309 310 312 312 313 315 316 317 318 320 320 320 320 320 321 321 322 321 321 321 321 321 321 321 321 321 321 321 321 321 321 322 322 322 323 323 323 322 322 322 322 322 321 321 321 321 321 321 322 322 321 321 321 321 320 320 320 320 320 320 320 320 319
320 320 320 319 320 319 318 318 316 315 315 317 317 316 317 317 314 312 311 310 311 312 312 311 310 309 308 307 306 307 307 306 307 308 309 310 311 312 314 315 315 316 317 319 320 320 319 319 319 319 319 320 320 320 320 320 320 320 320 320 320 320 320 320 320 321 321 321 321 321 321 320 320 320 320 320 320 319 317 317 318 319 319 320 319 319 319 319 318 318 319 318 318 318 317 316 316
320 320 319 319 319 318 320 318 316 316 316 317 318 318 319 318 315 313 311 310 311 312 312 310 309 308 308 307 306 306 306 306 307 308 308 310 311 312 314 315 315 316 315 317 319 318 317 317 317 317 318 318 319 318 318 319 319 319 319 319 319 319 319 319 319 319 319 319 319 319 319 319 318 317 317 316 315 314 314 313 314 315 316 316 316 316 316 316 315 315 314 313 312 311 310 310 310
319 319 319 319 319 319 320 318 315 315 316 318 319 319 319 319 318 315 311 310 311 312 311 310 309 308 308 307 307 306 305 305 307 308 309 310 310 311 313 314 315 315 315 316 317 317 317 317 317 317 317 318 318 318 317 317 318 318 318 318 318 319 318 318 317 316 316 316 315 315 314 313 312 311 310 309 308 308 308 308 309 309 310 310 310 310 310 309 309 308 308 306 305 305 305 304 304
318 318 318 319 319 319 320 317 314 314 316 318 319 319 318 318 319 316 312 311 312 312 312 311 310 309 308 307 306 306 305 305 307 308 308 309 309 311 312 314 314 315 315 315 316 317 317 316 316 316 316 316 317 316 315 315 315 315 316 317 318 317 315 313 312 310 310 309 308 308 308 307 306 305 305 305 305 305 305 305 305 305 305 305 305 304 304 304 304 304 303 303 302 301 301 301 301
318 318 318 319 319 320 320 316 314 313 315 318 318 318 318 318 319 316 313 313 313 313 312 311 310 309 308 307 306 305 304 305 307 307 308 308 309 310 312 314 315 315 315 315 316 316 316 315 315 315 316 316 316 315 314 313 313 314 315 315 314 312 309 307 306 306 305 305 305 304 304 304 304 303 303 303 303 303 303 303 302 302 302 302 302 301 301 301 301 301 301 300 299 298 298 298 298
318 318 318 319 320 320 319 316 314 313 314 316 317 317 317 318 318 316 314 314 313 311 310 309 309 308 307 307 306 305 304 305 305 306 308 308 309 310 312 313 314 315 315 315 315 315 315 315 315 316 315 315 314 313 312 312 311 311 311 309 307 306 305 304 304 304 303 303 303 302 302 302 302 302 301 301 301 301 301 300 300 300 300 299 299 299 299 299 298 298 298 297 297 296 295 295 295
318 319 319 319 320 320 319 318 316 315 315 315 315 317 318 319 320 317 313 311 310 308 307 307 306 307 306 306 305 305 305 304 304 305 307 308 309 310 312 313 313 315 315 315 315 315 315 315 315 314 313 312 311 310 309 308 307 307 306 305 304 304 303 303 302 302 301 301 301 301 301 301 300 300 300 300 300 299 299 299 298 298 297 297 297 297 296 296 296 296 295 295 295 294 293 293 293
318 319 319 319 319 319 320 319 317 318 319 316 316 320 322 320 322 319 311 309 309 307 307 307 306 306 305 304 304 304 304 304 303 305 307 307 309 310 312 313 314 315 315 314 314 314 313 312 311 309 308 307 306 305 305 304 304 304 304 303 303 303 302 301 301 301 300 300 300 300 300 299 299 299 298 298 298 297 297 297 296 296 296 296 295 295 295 295 294 294 294 293 293 293 292 292 292
319 320 319 318 319 319 319 319 318 320 322 317 315 321 323 320 321 319 312 310 310 307 307 308 307 306 305 304 304 303 303 303 303 305 306 307 309 310 311 312 313 314 314 313 312 310 309 307 306 305 304 304 303 303 303 303 303 303 302 302 302 302 302 301 300 300 300 299 299 298 298 298 297 297 297 296 296 296 296 296 295 295 295 295 294 294 294 294 293 293 293 292 292 292 292 292 291
320 320 319 318 319 319 320 319 319 320 321 317 315 318 321 320 321 319 314 312 312 308 307 308 308 306 305 305 305 304 303 303 304 305 306 307 308 310 311 311 312 312 311 309 307 306 305 304 303 303 303 302 302 302 302 302 302 301 301 301 301 301 301 301 300 299 299 298 298 297 297 296 296 296 296 295 295 295 295 295 295 294 294 294 294 293 293 293 292 292 292 292 292 291 291 291 290
319 317 317 318 318 319 319 319 319 319 319 320 318 318 320 320 320 318 315 315 315 313 310 308 308 307 305 305 305 303 303 304 305 305 306 307 308 309 310 309 309 308 307 305 304 304 303 303 302 302 302 301 301 301 301 301 300 300 300 300 301 300 300 300 299 298 298 297 297 296 296 296 295 295 295 295 295 294 294 294 294 294 293 293 293 292 292 292 291 291 291 291 291 290 290 290 289
317 315 316 316 317 318 318 319 319 318 319 320 320 319 320 322 320 318 317 316 317 317 314 310 309 307 306 305 304 303 303 304 304 305 306 306 307 308 308 307 306 305 304 303 303 302 302 302 301 301 301 301 301 300 300 300 300 300 300 300 300 300 299 299 298 297 297 296 296 296 295 295 295 294 294 294 294 294 294 293 293 293 292 292 292 291 291 291 291 290 290 290 289 289 289 289 289
315 316 317 317 316 316 317 317 317 319 320 320 320 319 320 321 321 320 320 318 318 319 316 311 309 308 306 305 304 303 303 303 304 304 305 306 306 306 305 304 303 302 302 302 302 301 301 301 301 301 301 300 300 300 299 299 299 299 299 299 299 299 298 298 297 297 296 295 295 295 295 294 294 294 294 294 293 293 293 293 292 292 291 291 291 291 290 290 290 290 289 289 289 288 288 288 288
316 317 317 318 318 316 317 317 316 320 323 320 318 319 320 321 321 320 320 318 317 318 315 311 309 308 306 305 304 303 303 303 303 304 305 305 304 304 303 302 302 301 301 301 301 301 301 301 300 300 300 300 300 299 299 299 299 299 298 298 298 298 298 297 296 296 295 295 295 295 294 294 294 293 293 293 293 292 292 292 291 291 291 290 290 290 290 289 289 289 289 288 288 288 288 287 287
316 317 317 320 322 320 320 320 318 321 321 315 314 318 321 321 320 319 320 317 314 315 314 312 310 308 306 305 304 303 303 303 303 303 304 303 303 302 302 301 301 301 301 301 301 301 300 300 300 300 300 300 299 299 299 299 298 298 298 298 297 297 297 296 296 295 295 295 295 294 294 294 293 293 293 292 292 292 292 291 291 291 290 290 290 289 289 289 289 288 288 288 288 287 287 287 287
315 318 319 321 324 325 325 324 322 322 319 312 312 316 318 319 318 318 317 314 311 311 312 312 310 308 306 305 303 303 302 302 303 303 303 302 302 301 301 301 301 300 300 300 300 300 300 300 300 300 300 299 299 298 298 298 298 298 297 297 297 296 296 296 295 295 295 295 294 294 293 293 293 293 293 292 292 292 291 291 291 290 290 290 290 289 289 289 289 288 288 288 287 287 287 287 287
315 318 319 321 323 326 326 324 323 323 317 311 312 316 318 318 316 313 311 309 308 307 308 310 310 307 306 304 303 302 302 302 302 302 302 302 301 301 301 301 301 300 300 300 300 300 300 300 299 299 299 299 298 298 298 298 297 297 297 297 296 296 295 295 295 295 295 294 294 294 293 293 293 293 292 292 292 292 291 291 291 290 290 290 290 289 289 289 289 288 288 288 287 287 287 287 287
316 317 319 320 321 322 323 320 317 317 316 314 313 315 317 317 313 309 307 307 306 306 306 308 308 307 305 304 303 302 301 301 302 301 301 301 301 301 301 301 301 300 300 300 300 299 299 299 299 299 299 299 298 298 297 297 297 297 296 296 296 295 295 295 295 295 295 294 294 294 293 293 293 292 292 292 292 291 291 291 290 290 289 289 289 289 288 288 288 287 287 287 287 287 287 287 287
317 317 318 318 317 319 320 318 314 313 318 319 315 315 316 316 314 309 307 307 306 306 306 307 308 306 305 304 303 302 301 301 301 301 301 301 301 301 301 301 301 300 300 300 299 299 299 299 299 298 298 298 298 297 297 297 296 296 296 295 295 295 295 295 295 295 294 294 294 293 293 293 292 292 292 292 291 291 290 290 289 289 289 288 288 288 287 287 287 287 287 287 286 286 286 286 286
316 317 318 316 315 316 318 320 319 318 321 322 318 317 317 318 317 312 308 308 307 306 306 307 307 306 305 305 303 302 302 301 301 301 301 301 301 301 301 301 301 300 300 300 299 299 299 298 298 298 298 298 298 297 297 296 296 296 295 295 295 295 295 295 294 294 294 294 293 293 292 292 292 292 292 291 290 290 289 289 288 288 288 287 287 287 287 287 287 286 286 286 286 286 286 286 286
313 315 316 316 318 318 318 319 321 322 323 322 320 319 318 318 318 314 311 312 310 307 306 306 306 306 306 305 304 303 302 301 301 300 301 301 301 301 301 301 300 300 300 299 299 299 298 298 298 297 297 297 297 297 296 296 295 295 295 294 294 294 294 294 294 293 293 293 293 292 292 292 292 291 291 290 289 289 289 288 288 288 287 287 287 287 287 287 287 286 286 286 286 286 286 286 285
311 312 315 316 317 318 319 319 320 321 323 323 322 320 318 318 318 316 315 314 312 309 307 306 306 306 306 305 304 303 302 301 301 301 301 301 301 301 301 301 301 300 299 299 299 298 298 298 298 297 297 297 297 296 296 295 295 294 294 294 294 294 294 293 293 293 293 293 292 292 292 291 291 291 290 289 289 289 288 288 288 288 288 287 287 287 287 287 286 286 286 286 285 285 285 285 285
312 313 315 315 315 315 316 318 318 319 321 322 323 322 319 318 317 318 317 316 314 311 308 307 306 306 306 306 305 303 302 301 302 302 302 301 301 301 301 301 300 300 299 299 299 298 298 297 297 297 297 296 296 296 295 295 294 294 293 293 293 293 293 293 293 293 292 292 291 291 291 291 290 290 289 289 289 288 288 288 288 288 288 288 287 287 287 287 286 286 285 285 285 285 285 285 285
314 314 315 316 316 316 317 319 318 317 318 320 321 322 320 317 316 316 316 316 315 312 310 309 307 306 305 306 305 304 303 302 302 302 302 301 301 301 301 301 300 299 299 299 298 298 298 297 297 297 296 296 296 295 295 294 294 293 293 292 292 292 292 292 292 292 291 291 291 291 291 290 290 289 289 289 288 288 288 288 288 288 288 287 287 287 287 286 286 285 285 285 285 285 285 285 285
Wind_Speed
3 2 1 1 2 2 1 3 3 2 2 4 4 2 5 4 1 1 4 3 3 7 7 5 4 5 6 5 6 8 10 11 9 6 5 5 5 6 2 2 4 1 5 11 10 13 15 13 13 13 13 12 11 10 9 8 6 5 5 4 1 1 0 1 2 3 3 3 5 5 6 8 8 8 8 9 8 7 6 6 6 6 6 6 6 6 6 7 8 8 7 7 7 7 8 8 7
2 1 2 2 3 1 1 3 2 3 2 4 3 3 5 2 1 3 7 6 6 7 5 4 3 3 4 3 2 2 9 11 11 10 8 6 6 6 2 3 4 2 6 10 10 12 14 12 13 13 13 12 11 10 9 8 7 5 4 4 2 1 1 2 2 3 3 3 4 5 6 7 8 8 8 8 8 7 6 5 4 4 4 4 4 5 5 5 7 8 8 7 7 8 8 9 9
3 3 3 3 1 2 2 4 2 2 2 4 4 4 2 2 4 6 7 7 7 5 3 2 1 2 5 3 0 2 8 10 10 8 8 7 4 4 3 3 3 4 6 10 9 11 12 11 13 12 12 11 10 10 9 7 6 5 4 4 3 2 1 2 3 3 3 4 4 4 6 7 7 7 8 8 8 8 7 5 3 3 3 3 3 4 4 5 6 7 8 8 8 8 9 10 11
4 3 5 3 1 3 3 3 1 1 1 3 4 4 1 3 6 6 7 6 5 4 3 1 1 3 5 2 3 3 7 9 10 7 6 6 4 4 4 3 3 4 5 9 8 9 9 11 13 11 11 10 9 9 8 7 6 5 5 4 3 2 2 1 2 2 2 3 3 4 5 7 7 7 7 8 8 8 8 6 4 2 1 1 2 2 3 5 6 8 9 9 9 9 9 10 10
5 4 5 2 3 2 2 2 1 2 2 3 4 5 3 5 5 5 6 5 4 4 4 3 2 4 4 8 5 4 6 5 7 6 4 5 5 5 4 4 3 3 5 8 8 7 8 11 12 12 10 10 9 8 7 6 5 5 5 3 3 3 3 2 1 2 2 2 3 3 4 6 7 6 7 8 8 8 8 7 5 2 1 1 2 3 4 7 9 10 9 9 9 9 9 9 9
6 5 4 1 2 1 2 2 1 2 5 4 4 6 4 6 5 4 5 6 4 4 4 4 3 3 4 8 8 9 9 4 4 5 3 4 4 5 6 5 4 5 5 7 8 7 9 10 11 12 10 10 9 7 6 6 6 5 4 3 3 2 2 1 1 1 1 1 3 3 3 5 5 4 6 7 8 8 7 6 5 3 2 3 6 7 8 10 12 12 10 9 9 9 9 8 7
5 3 2 1 1 2 3 2 2 4 4 5 5 6 6 6 4 3 5 5 3 3 4 4 3 1 4 6 7 10 8 5 4 3 4 4 4 5 6 7 6 6 5 6 7 7 9 9 10 11 10 10 9 8 7 6 6 5 5 4 3 2 1 1 2 2 0 1 4 5 4 5 4 3 4 6 7 7 7 6 5 4 4 5 7 9 9 11 13 14 12 10 9 9 9 7 6
4 1 2 3 2 2 2 2 3 3 4 4 5 6 6 5 2 2 3 3 3 4 3 4 2 3 5 5 5 7 7 9 7 6 5 4 4 4 6 7 7 7 7 7 8 7 8 9 10 11 10 10 10 9 8 7 7 6 5 4 4 3 3 2 2 3 2 2 4 4 3 4 3 2 4 6 6 6 6 6 5 4 4 6 7 7 8 10 12 13 12 10 9 8 7 6 4
1 1 3 3 1 2 1 3 3 4 5 4 4 6 5 4 2 0 3 5 4 4 4 4 5 3 5 6 8 7 6 9 8 7 5 4 4 3 5 6 7 8 8 8 7 7 8 9 10 10 11 11 11 10 9 8 8 7 6 4 4 3 4 3 2 4 3 3 3 3 2 2 2 2 2 3 5 6 6 4 4 3 3 5 5 6 8 10 11 11 10 9 9 7 5 3 3
2 2 3 2 1 3 2 3 3 4 6 4 4 6 4 3 2 1 2 5 4 3 5 3 4 3 4 6 9 6 6 7 6 5 3 3 3 2 4 5 6 7 8 9 8 7 8 10 11 11 11 12 11 10 10 10 9 8 7 5 5 4 5 4 2 2 4 3 2 3 2 1 1 1 1 2 3 4 4 3 3 3 3 4 6 7 9 11 11 11 10 9 8 6 3 2 2
3 2 2 3 3 3 3 3 4 4 5 5 5 5 3 2 1 1 1 4 3 2 4 1 1 4 2 4 7 5 4 5 3 1 1 1 2 2 3 4 5 6 7 8 9 8 8 10 11 11 12 12 12 11 11 11 10 10 8 7 6 6 5 5 3 1 4 4 3 3 2 1 1 1 1 2 2 2 3 3 3 3 3 5 7 9 10 10 11 12 11 9 8 5 2 1 1
3 2 3 4 3 2 1 4 5 5 5 5 6 5 4 2 2 2 1 3 2 2 5 3 2 2 4 4 8 7 2 3 3 2 1 2 3 4 4 3 3 5 6 7 8 8 9 10 11 12 12 13 13 13 12 11 11 10 9 9 8 7 6 5 5 3 3 4 4 3 3 3 2 2 3 3 3 3 3 2 3 4 4 6 7 10 11 11 12 13 12 10 8 5 2 1 2
3 0 4 3 1 1 1 3 5 5 5 5 6 6 3 2 2 1 2 1 1 1 4 5 3 3 4 4 9 7 3 4 4 3 3 4 4 5 5 5 4 4 5 6 6 7 8 9 10 12 13 13 14 14 14 12 12 11 10 9 9 9 8 7 5 4 4 4 5 5 4 4 2 3 4 3 4 3 3 3 3 4 5 6 8 10 11 12 13 14 14 13 10 6 2 1 2
2 2 3 2 0 1 1 2 5 5 5 6 7 6 4 1 1 3 3 1 3 3 4 2 1 4 3 3 7 6 3 5 6 4 3 4 4 5 5 6 6 5 4 5 5 5 6 7 9 11 12 13 14 15 15 14 13 13 12 10 9 9 9 8 6 5 4 4 5 5 5 4 3 3 4 4 4 4 5 5 4 6 6 6 8 11 12 13 14 15 15 15 14 10 4 1 2
2 2 3 1 2 3 2 1 5 6 4 8 6 5 5 1 1 1 3 4 4 4 2 1 2 3 2 2 2 1 5 6 8 7 5 5 5 5 5 6 7 7 7 6 5 5 5 6 8 10 11 11 12 13 14 15 15 14 14 12 10 10 10 9 8 6 5 5 5 5 5 4 4 4 4 5 6 6 6 5 5 7 7 8 10 12 13 15 15 15 16 16 15 13 8 4 2
1 1 3 2 3 4 4 3 4 5 4 8 6 5 6 4 1 1 2 3 1 2 2 1 2 3 3 4 3 6 10 9 8 7 7 7 5 6 6 6 7 8 9 9 8 6 6 6 7 8 10 11 11 10 11 13 15 16 16 15 13 11 10 10 9 8 7 6 6 6 5 4 5 5 5 6 7 8 8 7 7 8 9 10 12 14 15 16 15 14 15 16 15 14 11 7 4
1 2 4 3 4 4 5 6 3 2 6 8 7 4 4 5 4 1 1 3 2 1 2 1 2 2 3 4 7 10 9 7 5 4 6 7 5 6 8 7 8 9 10 11 11 9 8 7 7 7 8 10 10 10 10 11 14 16 16 16 15 13 12 11 10 9 8 8 7 7 6 5 5 5 6 7 8 8 9 9 8 9 11 12 13 15 16 15 13 12 13 15 15 15 13 10 6
1 2 4 2 3 2 3 5 2 2 5 7 5 2 2 3 5 2 2 4 4 2 5 3 2 1 3 5 7 7 5 4 3 2 3 6 6 8 10 9 9 10 10 12 12 12 11 10 9 8 8 9 10 10 9 10 13 14 15 16 16 16 14 13 11 9 8 8 9 8 7 7 5 5 6 7 8 8 9 9 9 10 10 11 13 14 14 12 9 10 12 12 14 16 14 11 9
2 2 3 0 2 3 3 3 4 2 4 5 3 2 1 1 2 1 4 4 4 4 8 7 4 3 5 6 4 4 5 5 5 4 2 4 7 9 10 10 11 11 11 12 13 13 13 13 12 11 11 10 10 10 9 7 9 11 13 14 14 15 15 14 12 10 8 9 9 8 8 8 7 6 7 8 8 8 9 10 10 10 10 10 11 11 10 8 7 10 10 10 13 15 14 13 11
1 3 3 2 4 4 4 4 5 4 3 2 2 2 2 3 1 1 4 3 5 2 6 6 6 5 4 5 2 2 4 4 4 3 2 2 5 7 9 10 10 11 11 12 13 13 14 15 14 14 13 12 11 12 10 7 6 8 11 14 13 14 14 13 12 11 10 11 10 9 8 8 8 8 8 9 9 10 10 11 11 10 10 9 9 10 8 6 8 10 10 11 11 12 14 14 13
1 3 2 5 3 3 4 3 4 4 2 0 1 0 4 3 1 3 4 7 6 3 5 2 2 1 4 4 2 0 2 2 2 2 1 0 2 4 5 6 8 9 10 11 12 13 14 15 16 16 15 14 13 13 11 9 8 8 10 13 13 12 13 14 13 12 11 12 11 10 10 10 9 8 8 9 9 9 9 9 10 10 10 10 8 7 6 7 8 8 11 11 9 12 14 14 14
2 1 4 5 1 1 4 3 3 3 1 1 2 3 3 2 4 6 6 7 1 5 2 4 4 5 5 4 3 1 0 1 1 1 2 1 2 2 3 4 5 5 7 8 10 12 13 14 15 16 16 16 15 14 13 11 9 9 10 12 13 11 11 13 14 13 12 11 11 11 11 11 9 8 9 10 9 8 9 9 9 8 9 9 9 7 8 8 6 6 10 9 9 13 14 13 14
2 2 3 2 1 1 4 3 2 1 2 3 4 3 2 4 7 6 5 4 1 4 5 6 7 6 4 3 3 2 2 2 2 2 2 3 3 3 4 4 4 5 5 6 8 9 10 12 13 14 16 17 16 15 13 11 9 8 9 11 12 11 11 12 13 14 14 13 12 12 12 11 10 9 9 9 9 9 9 8 7 8 9 9 10 9 9 8 6 5 6 8 10 12 12 12 13
4 1 4 2 1 1 2 3 3 3 4 5 3 3 6 9 6 4 4 4 6 6 5 6 6 5 4 2 2 2 2 2 3 2 3 3 3 4 4 4 4 5 5 5 6 7 8 9 10 11 13 15 16 15 12 9 7 7 9 11 11 12 13 13 13 14 13 13 13 13 12 13 12 11 11 10 11 12 11 10 10 9 8 8 9 9 8 7 8 6 5 7 9 9 10 11 12
4 1 3 1 1 3 2 3 5 6 7 6 5 7 10 8 4 4 5 5 8 6 5 6 4 4 3 3 2 3 3 4 4 4 5 5 5 4 4 4 4 4 4 4 4 5 5 6 7 7 7 8 10 10 9 7 8 10 11 12 12 14 14 14 14 14 12 11 12 12 12 14 14 12 11 12 13 13 13 14 14 10 7 8 9 8 9 8 10 8 7 8 5 5 8 10 12
1 1 1 2 3 4 5 6 7 7 7 6 6 10 9 5 4 5 5 6 8 6 5 4 4 3 3 3 3 3 4 4 4 5 5 6 6 5 4 3 3 4 3 3 3 3 4 4 5 7 7 8 8 10 11 11 13 13 12 12 13 14 14 14 14 14 14 12 12 13 13 14 13 12 12 12 13 12 13 14 14 11 8 10 11 11 11 11 11 10 9 10 7 6 7 9 10
2 2 4 6 7 6 6 7 7 6 7 8 8 9 5 5 5 4 6 8 7 5 4 4 4 2 3 3 4 5 4 4 4 4 4 5 5 5 4 3 2 3 3 3 3 2 2 1 3 6 9 12 13 13 14 14 15 14 13 13 12 12 14 15 14 13 13 12 11 11 13 12 11 12 13 12 11 11 11 10 9 9 8 9 10 12 12 10 10 11 12 12 11 9 9 11 11
1 4 7 8 8 8 9 8 7 5 5 8 9 7 3 6 5 3 8 9 8 6 4 4 3 4 5 6 5 5 4 3 3 3 3 3 4 4 4 3 2 3 3 3 2 2 1 1 3 4 7 11 12 13 13 15 15 13 14 13 10 10 12 14 14 12 11 11 10 8 9 10 10 10 11 10 9 9 8 6 5 7 9 10 10 11 10 7 8 11 13 12 11 10 10 12 12
3 4 7 7 8 9 9 6 5 6 4 5 7 6 6 9 6 7 10 10 9 7 5 4 5 6 7 6 4 4 3 2 2 2 3 3 4 4 3 3 2 2 2 2 2 2 2 3 4 6 6 8 12 13 14 15 16 15 14 14 12 10 10 11 11 10 9 9 8 7 6 6 6 7 9 9 10 10 9 7 6 6 8 9 9 10 10 9 9 9 11 11 11 10 11 12 13
5 5 4 6 8 7 8 6 4 5 3 6 6 5 6 9 8 9 11 11 10 8 7 6 6 7 7 5 3 4 3 3 2 2 3 4 4 3 3 3 3 2 3 3 3 3 3 5 6 7 8 9 13 15 14 14 15 14 13 14 14 11 8 7 7 6 6 5 5 6 6 5 4 5 6 7 8 9 10 9 7 7 7 8 9 8 8 8 8 7 8 9 10 11 12 14 16
5 4 4 5 6 2 8 7 6 6 4 7 7 6 3 7 9 9 10 12 11 9 8 7 6 6 6 5 5 5 5 4 3 3 4 4 4 3 4 4 4 3 4 4 5 5 5 6 7 7 9 10 13 15 16 14 12 12 11 12 13 10 8 7 5 3 3 3 3 3 3 5 6 6 6 6 6 7 7 8 8 8 8 8 8 8 7 7 7 7 9 10 11 12 13 14 15
4 4 5 5 4 2 7 7 5 3 4 8 8 5 2 7 9 9 10 11 11 8 8 7 6 6 6 5 6 6 6 6 5 5 5 4 4 3 4 5 5 5 7 7 7 7 7 7 8 7 7 10 12 13 15 15 13 12 11 9 9 8 6 5 4 2 1 1 2 2 2 2 2 3 4 3 3 4 5 6 7 7 7 7 8 8 8 7 7 9 10 11 11 12 13 13 13
5 5 6 5 5 4 4 5 3 2 4 9 9 6 4 5 10 9 10 11 11 10 8 8 7 6 6 6 7 7 6 6 6 6 6 5 4 3 4 6 7 8 9 9 8 8 8 9 9 8 7 8 10 10 11 12 12 11 9 6 6 6 5 4 3 3 3 4 3 4 3 3 3 3 2 2 2 2 2 2 3 4 4 4 6 6 6 6 7 8 9 10 11 12 13 12 14
5 5 5 6 6 6 4 3 5 4 4 7 9 9 8 4 12 10 10 12 12 12 10 9 8 7 7 7 7 6 5 6 8 8 7 6 5 4 6 7 9 11 11 10 10 9 10 11 11 11 10 9 9 10 10 9 9 9 8 8 7 6 5 6 7 7 6 6 6 5 5 5 4 4 4 2 2 2 3 3 3 2 2 2 3 4 4 4 5 6 8 9 10 11 11 12 13
5 4 4 6 6 7 7 3 4 5 6 6 8 10 11 6 12 12 11 12 12 12 10 9 8 7 8 7 7 6 6 7 10 9 9 8 7 6 7 9 10 12 12 12 11 9 9 10 11 12 11 10 9 9 9 9 9 10 10 10 8 7 7 7 8 7 6 6 6 5 4 3 2 2 1 2 3 4 5 5 5 4 4 3 3 4 4 4 5 6 8 9 10 11 12 13 14
6 6 6 7 6 6 6 1 4 2 4 8 10 11 13 10 9 13 13 13 12 11 9 9 8 8 8 7 7 7 7 9 11 11 10 10 9 8 9 10 11 11 12 13 12 9 9 10 11 12 12 11 10 9 10 10 10 11 11 9 8 8 8 8 7 5 5 4 3 3 2 1 2 2 2 3 3 4 4 4 4 4 4 4 4 5 5 6 7 8 8 9 10 11 11 12 13
5 6 7 8 8 8 6 3 5 1 3 9 10 12 14 13 9 11 14 13 12 12 11 11 10 10 9 9 8 8 9 11 12 12 12 11 10 10 10 11 12 12 12 13 12 11 12 11 10 11 12 12 11 10 9 9 9 10 10 9 8 8 8 7 6 4 4 4 3 3 3 4 5 5 6 6 6 6 6 5 4 3 3 3 3 4 5 6 6 7 7 7 8 9 10 10 10
7 7 8 8 8 9 6 3 5 3 3 9 11 13 13 14 13 9 15 12 13 15 14 13 13 12 10 10 10 10 11 13 13 13 14 13 12 12 12 12 13 13 13 13 13 13 12 11 10 11 12 12 11 10 9 10 10 10 10 9 9 10 9 8 8 9 9 9 9 8 9 10 10 10 11 10 10 10 10 10 10 9 8 8 8 7 7 8 8 8 8 8 10 11 12 13 13
8 6 7 7 6 8 5 5 5 3 3 7 9 11 12 13 13 9 16 14 13 15 14 13 14 13 11 11 11 12 12 13 14 15 15 13 13 13 13 14 15 15 15 14 14 14 12 11 11 11 11 11 10 10 10 11 12 12 12 12 12 12 13 13 14 15 14 13 13 13 13 13 12 13 13 12 12 12 12 12 13 12 12 11 11 10 10 10 10 10 10 11 11 13 14 15 16
8 6 6 7 6 6 5 3 3 3 4 6 7 9 11 13 12 10 14 12 9 8 8 8 11 12 11 11 12 12 13 13 14 15 15 14 14 15 15 15 16 17 16 16 16 15 13 12 12 11 11 10 10 10 11 12 14 15 15 16 16 16 17 17 17 17 16 15 15 14 14 14 13 13 12 12 12 12 12 12 13 12 12 11 11 11 11 11 12 12 12 13 13 14 15 17 17
9 9 8 8 7 7 7 2 1 3 7 6 6 8 10 12 14 11 9 6 5 6 7 7 9 10 10 11 13 12 12 13 15 16 16 16 17 17 16 16 17 18 18 17 18 16 14 14 13 13 12 12 13 13 14 16 17 17 17 18 18 18 18 18 17 17 15 14 14 13 13 12 12 11 11 11 11 11 12 12 12 12 12 12 12 13 13 13 14 14 14 15 15 15 16 16 17
8 11 12 12 11 10 9 5 2 6 7 5 5 7 6 5 10 9 8 6 7 9 10 11 12 12 12 13 13 13 13 14 14 17 19 19 19 18 17 17 18 19 19 18 18 17 16 16 15 16 16 17 18 18 18 18 18 17 17 17 17 16 17 17 15 15 14 12 12 12 11 11 10 10 10 10 11 11 11 11 12 12 12 13 13 14 14 14 15 15 16 16 16 16 16 16 17
7 4 8 11 11 10 10 7 3 5 5 2 5 7 6 3 5 6 9 8 9 10 11 14 15 15 15 14 14 16 18 18 18 19 21 21 20 20 19 19 19 20 20 20 19 19 19 19 19 20 20 20 20 19 19 18 17 16 15 15 15 14 14 14 14 12 12 11 11 10 10 10 10 10 10 10 10 10 11 11 11 12 12 13 13 14 14 15 16 16 16 17 17 17 17 17 18
5 2 1 6 8 9 9 8 7 6 5 2 6 7 7 8 7 4 9 8 10 11 12 14 17 17 17 16 15 17 19 21 22 22 22 22 22 22 22 22 22 22 22 22 22 22 22 22 22 22 21 20 19 18 17 16 14 14 13 13 13 12 11 12 12 11 11 10 9 9 9 9 9 9 9 9 10 10 10 11 11 12 12 13 13 14 15 15 16 16 17 17 17 18 18 18 18
2 4 2 1 2 5 6 7 7 6 6 6 7 7 6 8 6 5 8 8 10 13 14 15 18 19 18 17 16 16 18 22 24 24 25 25 25 25 25 25 25 25 24 24 24 24 24 23 22 21 21 20 19 17 16 14 13 12 11 10 10 10 10 10 10 10 10 9 8 8 8 8 8 8 8 9 9 10 10 11 11 12 13 14 14 15 15 16 16 17 17 17 18 18 18 18 18
3 6 4 4 2 1 3 5 5 5 7 8 8 9 6 7 6 7 6 7 11 12 11 14 18 20 18 18 18 17 20 23 24 25 26 27 28 28 28 27 27 27 27 26 26 25 24 23 22 21 20 19 18 16 14 13 12 11 9 8 7 9 9 9 10 9 10 9 8 7 7 7 7 7 8 8 9 9 10 11 12 13 13 14 15 15 15 16 16 17 17 17 17 17 16 17 16
8 7 4 4 2 2 3 5 3 6 9 10 12 13 10 7 4 7 6 4 7 8 7 11 16 19 19 19 19 19 23 26 26 27 28 29 30 30 30 30 29 29 28 27 26 25 24 23 21 20 19 18 17 16 14 13 11 9 9 8 7 8 8 9 9 9 9 8 7 7 6 6 6 7 7 8 8 9 10 11 12 13 14 14 15 15 15 16 16 16 16 16 16 16 16 16 16
6 5 4 3 3 3 4 5 4 7 9 6 8 12 13 10 4 6 6 2 2 3 8 12 15 19 21 20 20 22 26 29 30 30 31 32 33 32 32 32 31 29 28 27 25 25 23 22 21 19 19 18 17 16 14 12 11 10 9 9 8 8 8 8 8 8 8 7 6 5 5 5 6 6 7 8 9 10 11 12 12 13 13 14 14 15 15 15 15 15 16 16 16 16 16 16 16
5 5 6 5 4 4 5 5 6 8 6 1 2 5 10 11 8 10 8 3 5 2 4 12 18 21 22 22 22 25 30 32 33 34 34 35 35 35 34 33 32 30 28 27 25 24 23 22 21 19 18 17 16 16 14 12 11 10 10 9 8 8 8 8 8 7 7 6 5 4 4 5 5 6 7 8 9 11 12 12 13 14 14 15 15 15 15 15 15 16 16 16 16 16 17 17 17
9 8 8 7 5 6 8 7 7 7 3 2 2 2 5 7 7 12 9 3 6 5 4 9 19 22 23 23 24 28 32 34 36 37 37 38 37 37 36 34 32 30 28 27 25 24 23 22 21 19 18 17 17 16 14 13 12 10 10 9 8 9 8 8 7 6 5 4 4 3 3 4 5 6 8 9 11 12 13 14 14 15 15 16 16 16 16 17 17 17 17 17 18 18 18 19 19
11 9 8 8 6 7 8 7 7 5 1 1 2 4 5 4 1 2 1 5 5 5 5 7 15 20 21 22 24 29 34 35 38 39 39 39 39 37 36 35 33 31 29 28 26 24 23 22 21 19 18 18 17 16 14 13 12 11 11 10 9 9 8 7 6 5 4 3 2 2 2 3 5 6 8 10 11 12 13 13 14 15 15 16 16 16 17 17 17 18 18 18 18 18 19 19 20
8 6 8 9 6 7 6 2 1 1 1 2 5 4 4 3 3 4 5 4 5 5 6 9 15 19 21 22 24 30 35 38 40 40 40 40 39 38 37 35 34 32 30 28 26 25 23 22 21 20 19 18 17 16 15 13 13 12 11 11 10 10 8 7 6 4 3 2 0 1 2 3 4 6 8 10 11 12 12 13 13 14 14 15 15 15 15 15 16 16 16 17 17 17 18 18 19
5 7 8 4 1 3 5 2 2 0 6 5 6 5 5 3 3 5 6 5 6 7 7 11 15 19 22 21 24 32 38 40 42 42 41 41 40 39 38 36 34 32 31 29 27 25 24 22 22 21 20 19 18 17 15 14 13 13 13 12 11 10 9 7 6 4 3 2 2 2 2 3 5 7 9 10 11 12 12 12 13 13 13 13 13 13 13 13 14 14 14 15 16 17 17 18 19
4 6 5 3 3 3 3 5 2 4 9 5 6 9 7 6 5 5 7 7 8 9 9 11 15 19 21 21 24 33 39 41 42 42 42 42 41 40 39 37 35 33 31 30 28 26 25 23 22 21 20 19 18 17 16 15 15 14 14 14 12 11 10 8 7 6 4 4 3 3 3 4 6 8 10 11 11 12 12 12 12 11 12 12 12 12 12 13 14 14 15 16 17 18 19 20 20
0 2 2 3 3 5 5 5 5 6 9 7 7 11 9 8 6 6 10 11 11 11 11 12 15 19 20 22 24 30 37 40 42 43 43 43 43 41 40 38 36 34 32 31 29 28 26 25 23 22 21 20 19 18 18 17 17 16 15 15 13 12 11 9 8 7 6 5 4 4 5 6 7 9 10 11 11 12 12 11 11 11 12 12 12 13 13 14 15 16 17 17 18 19 20 21 21
1 3 3 2 2 4 5 5 5 5 8 8 7 8 7 9 9 10 13 14 13 14 12 12 16 20 22 24 26 31 39 43 45 46 46 45 44 43 41 39 37 36 34 33 31 29 28 27 25 23 22 21 20 19 19 19 19 18 17 16 15 13 12 11 9 8 7 6 6 6 6 7 8 9 10 11 11 12 12 12 12 12 13 13 14 15 15 16 16 17 17 18 19 20 21 21 21
6 6 7 6 3 1 3 5 5 5 7 7 7 7 5 4 7 11 15 14 13 15 13 12 16 21 22 24 29 37 43 46 48 49 48 47 46 44 42 40 38 37 36 34 32 31 30 28 26 25 24 23 22 21 21 21 20 19 18 17 16 14 13 12 10 9 8 7 7 7 7 7 8 9 10 11 12 12 12 13 13 14 15 15 16 16 17 17 17 18 18 19 19 20 21 21 22
9 9 10 10 8 5 4 7 6 4 5 5 6 9 5 2 2 4 7 7 8 13 13 12 17 22 23 25 31 39 45 48 50 51 49 48 47 45 43 42 40 39 37 36 34 33 32 30 28 27 25 24 24 23 23 23 22 21 20 18 17 15 14 13 11 10 10 9 8 8 7 7 8 9 11 12 12 13 13 14 15 16 16 17 18 18 18 18 18 18 19 20 20 21 22 22 22
Wind_Direction
305 312 9 13 60 40 152 250 240 187 269 99 93 130 87 47 91 122 88 68 98 60 26 23 13 349 333 339 18 49 42 28 25 25 73 62 37 36 29 15 7 33 168 176 180 180 180 182 175 171 173 175 175 176 179 179 185 184 183 186 197 207 251 340 30 54 63 82 103 110 114 108 101 89 79 73 67 66 63 60 52 41 33 28 29 28 29 32 31 24 12 14 15 17 20 17 12
16 51 84 72 93 1 235 238 248 136 177 115 82 64 98 143 156 69 59 48 54 45 20 18 7 355 329 306 301 72 59 46 47 60 78 58 41 33 47 46 16 86 163 175 183 185 179 185 182 173 175 178 179 180 183 186 189 187 187 188 207 235 284 311 358 47 77 96 113 122 117 104 96 86 79 70 61 53 43 48 55 43 32 28 25 24 21 15 22 19 5 3 358 352 349 347 346
63 84 105 93 102 282 253 237 255 163 152 110 97 85 120 152 87 65 56 53 50 27 20 11 356 7 297 220 5 37 76 60 46 62 73 57 56 29 60 67 31 110 163 172 179 188 179 191 189 177 178 180 182 184 188 192 193 191 192 193 207 219 275 311 342 34 92 117 124 128 120 106 97 88 77 64 54 47 38 36 40 45 42 35 25 22 10 358 7 3 352 349 342 336 331 330 332
67 96 114 99 245 232 238 244 277 259 130 104 112 110 115 78 78 72 67 61 50 17 18 356 108 41 331 49 44 38 76 64 44 47 64 47 64 66 80 80 55 112 160 168 174 184 185 202 195 183 182 182 187 189 191 197 199 198 198 204 212 230 267 276 311 355 79 124 134 127 121 111 104 90 71 56 48 43 41 35 24 19 23 26 22 24 1 342 347 343 336 331 326 322 321 324 328
73 95 112 95 270 232 277 275 287 305 52 68 115 119 110 82 83 81 80 75 54 23 11 335 75 81 40 39 14 14 29 43 46 33 59 42 56 87 98 96 92 116 146 166 168 175 201 214 196 186 188 186 190 194 196 203 207 202 199 212 223 245 270 244 255 315 28 120 140 118 113 115 107 83 59 48 45 42 41 37 22 356 313 329 323 327 336 334 338 339 333 324 318 315 316 321 326
75 83 100 68 290 292 268 214 192 87 43 11 101 114 104 84 79 87 101 99 76 43 22 345 29 92 101 64 43 33 12 17 30 4 57 60 69 98 107 110 110 122 139 168 166 176 212 217 198 187 191 194 194 198 203 208 209 209 208 213 224 240 267 246 188 253 1 84 125 120 108 108 101 68 44 37 36 36 37 36 28 14 336 327 326 328 333 336 341 344 342 332 324 318 317 321 325
81 82 120 192 177 248 259 160 91 100 55 10 86 107 99 87 76 113 130 125 119 82 40 24 6 305 114 105 72 45 25 51 49 31 70 74 86 104 113 118 122 132 147 166 172 193 211 206 198 188 190 200 199 202 209 211 207 212 219 213 214 220 242 212 164 166 187 78 105 121 115 94 90 61 31 21 20 26 29 30 32 30 6 349 341 339 339 343 348 349 347 340 334 327 321 323 326
87 71 231 238 169 231 274 109 69 77 86 51 77 81 80 84 80 119 122 107 93 87 55 56 331 290 102 115 98 60 43 65 64 66 75 83 91 109 113 120 133 145 158 168 183 206 209 196 200 192 187 197 203 207 209 212 209 210 215 216 221 223 237 230 180 172 167 105 103 115 111 83 75 56 22 6 6 15 19 25 31 32 12 1 351 344 343 342 345 347 347 342 339 337 330 330 337
55 290 248 248 207 198 201 114 90 85 110 113 102 88 81 82 70 55 114 104 88 78 56 46 334 320 118 117 105 82 44 57 57 62 78 89 89 115 114 120 136 151 165 171 189 207 204 195 201 198 188 191 200 206 206 211 213 215 210 215 231 233 243 252 205 170 153 129 124 130 129 89 71 49 12 354 355 1 7 22 33 29 2 351 344 337 335 333 338 345 347 344 342 346 347 348 3
264 251 268 259 228 178 174 146 118 114 119 126 119 108 106 95 86 6 89 106 102 79 66 40 348 31 136 123 105 91 42 43 38 55 81 98 102 130 127 126 133 150 166 174 191 206 201 196 200 199 194 191 195 202 205 210 212 218 220 221 231 238 248 263 261 153 148 156 163 170 182 152 85 15 340 330 335 353 356 6 15 19 347 330 329 328 328 328 336 344 348 349 349 355 2 17 44
239 212 285 263 219 193 187 164 135 132 131 142 134 116 118 109 151 155 82 104 110 105 78 339 14 60 190 127 100 108 66 29 0 21 101 151 160 176 171 150 139 147 160 173 187 201 200 196 200 201 200 195 194 202 206 210 211 216 223 228 229 234 244 254 262 203 162 168 181 194 209 214 200 257 275 298 294 332 345 347 342 341 328 324 326 327 328 328 336 343 346 351 356 3 7 42 88
257 174 227 245 225 211 156 151 146 142 147 168 151 127 119 144 213 177 109 105 122 146 81 5 20 32 248 154 122 140 160 6 358 312 311 251 221 215 214 194 173 155 157 167 178 194 200 198 200 202 203 201 198 201 206 210 213 216 218 226 231 233 240 245 245 238 202 183 188 198 212 224 217 234 256 273 277 301 318 317 317 318 317 319 323 328 330 331 338 342 343 347 354 5 12 106 135
290 171 236 250 299 304 111 140 146 149 168 177 140 123 139 181 226 25 21 135 159 142 66 29 26 321 279 150 138 154 236 328 353 307 290 275 252 235 231 221 213 188 168 168 174 182 193 200 203 205 205 204 203 204 206 209 215 216 216 222 231 234 238 243 243 240 230 210 202 199 210 221 220 236 251 259 275 289 289 290 299 309 308 307 316 323 326 332 338 339 340 344 345 351 8 165 168
320 339 273 253 18 232 153 148 153 179 179 140 113 123 165 199 19 18 332 286 90 54 28 35 328 294 279 174 149 152 258 309 328 306 276 277 274 256 240 235 229 220 210 189 186 180 185 195 201 210 209 207 207 208 208 209 215 216 216 220 226 232 236 241 244 245 242 231 223 215 216 222 229 239 253 261 274 280 280 283 289 305 304 301 312 318 322 329 336 338 341 344 341 340 342 268 186
21 329 278 214 187 194 185 185 172 208 172 126 114 131 159 123 35 30 348 347 63 63 18 141 250 290 325 335 131 143 287 295 304 294 274 268 270 271 251 244 236 227 231 221 213 201 195 194 196 208 211 212 209 211 214 213 215 216 217 218 222 228 233 239 243 249 254 246 236 231 226 227 243 246 261 269 272 277 280 280 290 302 302 302 310 316 320 323 333 340 342 345 342 336 335 320 249
52 282 253 199 198 197 187 190 191 215 152 123 118 132 164 139 102 338 4 336 32 91 40 69 260 294 335 344 326 303 297 294 292 281 268 263 268 277 263 251 243 233 232 231 231 223 216 210 205 206 207 212 210 212 218 218 219 220 218 217 221 225 228 235 242 251 260 258 246 241 233 229 247 246 249 260 266 272 276 280 290 293 294 301 308 314 316 318 329 339 342 344 342 337 334 328 301
132 247 245 209 199 195 176 180 190 177 125 124 127 148 199 152 146 264 313 268 266 133 98 170 222 243 281 302 300 299 299 297 291 271 258 259 263 270 266 259 251 242 234 234 237 235 235 231 225 221 212 211 209 210 213 216 221 222 221 220 222 225 227 230 239 251 258 262 253 247 241 232 242 247 247 254 259 265 270 277 280 283 290 298 307 312 312 315 325 336 340 342 341 338 334 330 319
245 243 241 223 183 158 161 171 146 108 128 134 130 132 258 164 148 175 255 215 235 215 125 124 173 195 300 305 302 310 324 338 346 316 260 250 248 251 258 256 253 250 242 237 237 238 241 243 241 239 232 220 211 209 210 216 219 218 220 223 224 227 231 232 239 248 252 257 254 248 247 243 237 241 252 256 259 262 267 273 275 280 286 294 304 310 313 318 324 331 336 339 340 338 332 330 330
285 280 245 233 81 82 68 103 87 81 130 128 118 81 299 310 87 154 248 201 228 226 146 142 124 89 325 319 320 350 13 19 16 357 321 252 242 244 251 252 253 252 249 245 240 239 240 243 245 244 243 238 226 212 206 214 219 216 215 218 224 230 234 237 241 242 240 245 249 245 240 240 233 233 243 249 255 260 264 267 272 278 282 292 300 306 316 323 327 330 335 336 333 335 335 332 332
307 288 256 86 81 92 81 84 80 73 97 125 137 86 285 291 33 251 275 264 245 219 132 156 125 88 325 310 315 14 32 27 24 19 9 246 232 236 243 247 252 253 253 251 247 244 240 240 242 243 242 241 237 226 217 211 207 211 212 210 216 229 233 234 239 241 239 240 242 242 237 235 235 239 247 253 258 262 266 266 272 279 283 292 293 296 309 319 330 333 335 337 331 337 341 335 332
306 304 346 84 107 123 107 94 89 88 73 314 163 267 269 240 242 265 281 279 241 114 86 157 119 65 277 267 228 229 47 31 20 21 21 244 222 227 234 239 245 249 250 251 250 247 244 242 240 242 243 241 240 238 231 218 205 203 204 205 211 224 227 226 230 234 239 242 242 240 239 239 238 243 253 261 262 262 267 268 275 285 288 292 289 290 300 315 334 329 330 341 337 341 343 334 332
271 25 45 85 108 116 118 110 96 101 47 264 222 250 265 220 257 261 260 282 257 112 145 227 253 258 250 232 217 235 291 320 323 309 315 306 286 263 249 249 246 246 246 248 250 249 247 245 242 241 241 240 239 238 234 223 205 195 196 202 209 216 220 224 228 229 231 238 241 238 237 241 239 243 251 256 260 261 267 270 276 282 281 282 280 282 284 291 315 319 326 336 327 334 339 332 331
283 114 93 92 10 25 121 140 153 140 255 238 239 252 273 260 260 252 248 276 197 171 222 247 254 240 221 209 215 240 234 250 260 262 286 293 295 289 279 272 263 256 251 251 250 252 252 248 246 242 238 236 233 233 230 217 194 187 197 201 205 212 214 219 225 227 229 232 234 232 231 232 231 234 240 246 252 254 256 262 269 273 271 269 271 276 273 273 286 301 315 317 314 325 330 328 328
288 159 130 115 351 286 131 165 206 226 247 248 262 271 256 252 254 236 215 231 232 224 235 246 239 210 196 205 232 269 265 269 277 282 299 303 304 296 289 284 277 268 257 255 252 252 253 250 247 243 238 229 224 227 223 207 193 191 194 195 201 208 207 211 220 224 227 229 228 230 231 233 234 233 235 239 247 248 247 251 257 263 266 262 265 274 272 271 276 275 289 301 313 327 328 328 328
268 321 128 151 232 239 224 209 227 231 242 249 248 256 253 244 249 240 196 207 233 228 223 223 200 172 180 202 236 272 291 302 312 320 325 328 325 315 305 297 286 278 265 251 245 248 247 244 236 227 221 211 214 218 207 190 192 194 188 191 202 205 207 213 220 224 229 233 235 240 240 240 243 241 240 241 246 250 247 248 250 247 243 241 245 257 257 255 254 251 272 292 309 334 329 330 332
30 21 142 237 241 241 240 240 240 230 233 228 229 250 247 220 235 234 177 199 222 207 206 191 151 157 184 211 242 259 269 277 291 306 314 321 321 322 323 306 278 267 260 246 236 240 238 229 212 196 171 166 184 190 187 183 184 192 192 196 205 206 210 216 222 230 238 242 243 246 245 244 247 247 247 245 245 248 241 240 245 245 237 234 239 250 256 259 257 251 265 280 287 299 309 320 326
38 316 275 259 254 246 235 247 246 229 231 216 227 256 229 165 224 222 160 196 205 173 183 171 148 180 221 236 246 247 241 237 243 259 279 293 299 308 311 298 271 247 243 242 231 228 233 208 182 188 176 175 186 187 185 184 185 190 189 194 205 207 210 216 222 228 233 236 239 246 249 252 257 253 249 248 246 243 237 239 251 252 243 239 244 252 260 270 268 256 257 269 278 282 292 302 306
346 307 287 255 243 238 225 236 237 223 229 210 224 258 180 160 218 176 147 178 175 150 162 169 189 220 233 239 236 233 227 222 224 229 242 254 263 272 277 268 248 228 222 223 215 189 175 146 137 163 179 182 184 184 182 183 186 188 185 188 201 209 217 223 226 231 233 234 238 243 248 257 259 248 243 242 239 240 245 260 265 250 244 247 252 256 258 263 264 257 255 265 274 272 279 288 292
305 293 292 271 249 238 212 204 213 215 213 183 207 249 220 199 191 137 149 168 157 157 171 174 214 233 236 239 235 233 226 220 218 221 230 233 238 231 225 223 209 206 189 172 163 136 123 126 132 142 158 170 171 176 183 187 188 189 191 193 196 202 214 224 235 251 254 250 249 241 234 243 241 230 234 236 236 242 254 269 267 245 246 256 260 262 260 258 262 265 268 275 278 277 277 282 292
286 256 271 291 271 233 176 157 174 197 186 167 197 262 233 189 155 136 157 168 162 173 184 184 213 230 237 239 241 252 245 242 243 234 238 234 230 210 196 186 166 171 158 142 127 121 126 131 139 146 148 156 166 171 181 192 194 195 198 198 201 204 207 222 237 250 259 264 268 257 232 227 232 231 241 247 248 250 254 265 265 253 259 268 267 264 264 267 267 271 281 283 283 286 285 288 296
266 257 238 258 272 198 143 153 176 184 169 174 208 269 244 150 138 147 163 169 173 185 186 186 202 209 227 233 233 251 254 255 255 247 246 234 224 200 177 155 141 145 129 119 119 118 120 126 140 160 161 163 174 177 178 186 191 194 198 198 204 210 214 224 226 224 256 279 288 288 251 239 251 261 269 274 275 268 264 271 273 271 276 283 278 268 264 268 273 282 282 279 283 289 289 291 293
233 256 251 225 240 180 144 157 190 191 158 182 211 263 237 147 148 156 164 176 183 195 193 187 196 198 215 227 226 242 251 253 251 246 239 221 217 191 160 142 132 127 119 118 121 122 124 126 135 153 159 161 174 180 180 186 188 192 202 203 200 201 203 209 209 218 262 318 346 8 358 310 278 278 286 297 302 295 288 287 287 286 287 295 295 282 270 270 284 292 289 287 290 291 292 291 286
217 231 263 246 237 237 166 148 181 182 151 189 212 257 288 141 149 161 169 182 191 203 205 192 197 201 208 219 224 232 242 249 242 235 227 211 204 180 145 138 129 116 113 117 120 118 120 125 129 135 140 145 157 163 169 179 182 188 196 186 168 166 169 163 139 116 104 88 78 84 76 68 84 93 89 82 63 23 345 315 302 293 286 289 290 281 277 283 290 292 293 295 293 292 293 289 286
223 209 249 259 251 252 240 149 145 169 187 214 216 241 272 162 148 166 175 182 194 208 211 200 198 199 208 217 221 219 216 233 236 225 216 203 190 168 147 139 131 123 120 120 123 122 123 129 135 138 138 139 145 150 157 163 161 163 159 145 141 147 148 136 125 119 116 117 117 115 107 103 105 106 103 91 52 6 349 331 319 309 304 296 287 290 295 300 300 297 299 298 294 295 295 295 295
277 245 253 267 246 239 253 226 143 175 205 239 231 235 257 214 157 167 178 182 196 209 207 202 200 195 207 212 209 208 202 222 233 221 208 199 184 168 155 144 135 132 132 131 136 140 138 139 141 139 135 136 138 138 142 144 142 140 136 135 136 134 131 130 132 137 139 136 135 128 123 123 108 91 46 342 332 330 324 312 301 291 295 301 304 315 321 318 315 309 307 302 299 299 300 301 299
304 289 283 285 265 252 260 195 111 174 231 251 251 250 259 244 183 169 176 184 196 208 201 200 202 197 202 201 202 209 204 223 229 214 203 196 185 173 163 154 141 135 132 135 142 143 131 128 130 129 126 127 128 125 127 130 130 131 131 132 130 126 131 136 137 142 146 148 146 132 125 102 53 33 16 8 3 357 347 334 319 302 298 301 305 308 310 312 311 310 311 311 312 312 313 314 310
295 286 275 272 268 269 268 140 110 106 256 259 259 262 263 261 239 181 170 182 196 204 202 202 201 197 200 196 199 202 205 223 223 206 200 192 184 179 170 159 148 140 136 138 144 139 131 130 130 130 131 133 132 131 134 139 143 144 145 144 141 138 137 137 134 129 130 125 107 94 86 76 70 66 64 63 61 60 56 53 49 43 31 9 352 345 341 340 337 338 341 345 348 345 346 348 344
261 269 265 262 257 266 268 136 127 131 242 268 268 267 261 262 263 189 162 182 201 204 205 204 200 193 195 195 196 201 212 222 212 199 197 190 185 182 172 161 152 146 144 144 145 144 140 138 137 137 139 141 140 140 139 141 144 146 147 145 143 138 127 119 113 106 100 95 88 85 82 77 75 73 72 70 69 71 71 69 66 62 60 54 45 40 33 26 22 21 20 19 17 11 11 10 6
253 252 253 260 258 267 259 140 137 162 234 274 276 274 267 265 262 192 174 198 206 204 206 201 195 191 193 194 193 200 211 213 203 198 195 187 184 182 172 163 157 151 149 149 149 150 149 144 145 147 142 141 141 138 137 135 134 135 133 128 127 123 115 109 104 99 95 92 90 86 83 78 74 72 69 67 65 64 64 63 61 58 57 55 51 46 42 38 35 34 32 30 27 21 17 13 10
240 236 242 252 249 260 255 156 135 189 235 284 297 285 273 268 257 201 188 202 192 184 190 188 189 190 192 195 196 199 200 198 196 197 193 184 181 180 175 166 160 156 154 155 155 156 157 153 154 153 147 143 138 133 133 130 129 129 126 122 121 118 111 106 103 100 97 94 91 86 82 78 73 70 65 61 58 56 55 55 54 51 48 46 43 37 33 31 30 29 29 28 26 22 19 14 12
230 228 233 249 249 246 254 254 95 237 236 245 273 283 272 257 243 213 179 179 181 177 188 197 198 194 190 192 195 193 189 189 191 193 189 182 178 177 175 168 162 161 161 162 162 163 164 161 158 153 147 142 135 131 128 124 122 122 122 121 120 116 110 108 105 102 99 94 89 83 77 73 67 63 59 53 50 48 45 44 43 40 37 34 31 27 25 24 23 22 22 21 20 21 21 16 12
241 223 221 241 258 259 264 279 323 284 262 201 213 269 278 247 231 206 159 176 204 190 197 208 204 199 198 198 197 191 185 183 188 191 185 179 176 174 172 170 166 164 165 166 165 164 162 159 154 147 141 136 131 128 125 123 122 122 122 121 119 115 113 111 107 103 99 93 87 81 75 70 63 57 53 49 45 42 38 36 33 30 27 24 23 22 20 18 17 15 15 16 15 16 16 13 12
260 229 211 230 254 263 264 266 247 270 285 160 188 258 278 265 239 187 155 188 202 189 203 208 199 197 197 197 193 192 193 186 183 186 182 176 174 172 172 171 168 166 166 165 162 159 155 152 147 141 136 132 129 127 126 125 125 123 122 120 118 117 116 113 109 104 99 93 87 82 75 68 61 53 49 45 41 37 33 30 27 24 21 18 18 15 12 12 11 11 10 10 10 9 8 7 9
258 32 179 216 242 254 250 250 238 256 289 209 194 239 273 270 257 185 158 189 200 195 209 207 197 194 190 189 188 187 194 192 184 180 177 175 173 172 172 169 167 166 164 162 159 155 151 148 144 139 135 131 128 126 125 124 123 122 121 120 120 119 117 115 112 106 98 93 87 81 73 66 59 50 44 39 35 31 27 24 21 18 16 13 12 9 9 9 7 6 5 4 4 3 3 4 4
244 74 60 153 236 259 246 243 243 255 274 249 208 206 251 264 246 189 179 213 225 210 204 199 195 191 184 184 182 178 185 188 183 177 176 175 173 172 169 167 165 164 162 160 157 153 150 148 144 141 137 133 131 128 126 125 123 122 121 122 124 123 121 118 114 108 100 95 88 80 72 63 56 47 40 33 27 23 19 17 15 12 10 9 7 6 6 5 2 1 0 360 0 360 0 1 0
143 117 92 87 95 248 227 241 249 248 251 250 222 194 225 271 240 198 195 226 241 228 199 187 188 183 179 178 175 174 180 181 179 178 178 176 173 170 167 166 165 163 161 159 157 153 151 149 147 145 142 138 134 132 131 129 128 128 128 129 132 129 127 122 117 112 105 98 90 81 73 63 53 43 35 27 21 17 13 12 10 7 6 5 4 3 1 0 359 358 358 358 359 358 358 357 357
137 142 121 122 168 176 207 234 241 255 252 241 224 205 216 268 242 203 213 219 238 230 176 167 176 176 175 174 171 172 179 179 177 179 178 175 172 169 166 166 165 163 162 160 157 155 153 152 151 149 147 145 141 139 140 139 139 143 142 138 138 134 129 124 121 116 109 102 93 81 70 58 48 38 28 21 15 12 10 7 5 3 2 1 360 359 357 356 356 356 356 356 355 355 355 355 355
156 171 170 179 200 177 214 223 201 247 257 232 215 210 214 236 232 209 222 164 168 204 160 162 172 173 173 172 169 174 180 180 178 179 177 174 171 168 167 166 165 165 163 161 159 157 157 156 155 155 153 151 148 148 149 152 153 155 152 147 143 137 131 127 123 117 110 102 91 78 67 52 39 29 21 14 10 7 4 2 1 359 358 357 356 355 354 353 352 351 351 350 350 350 351 351 350
194 191 185 200 217 205 226 220 203 236 250 111 139 200 219 236 242 241 242 129 107 105 143 168 173 172 171 168 166 174 181 182 179 178 176 174 171 169 168 167 166 166 165 164 163 162 162 160 160 161 160 158 156 157 159 162 162 160 157 154 149 143 136 131 125 117 113 104 90 75 58 41 27 19 12 6 2 359 356 355 353 352 352 351 351 350 350 348 347 348 347 347 347 347 347 347 346
195 191 185 199 213 232 244 236 233 238 222 83 105 173 236 253 247 243 242 108 95 78 84 164 171 168 167 164 165 174 180 182 180 178 176 174 172 171 170 169 169 169 168 167 167 166 166 165 165 167 168 166 164 166 168 168 168 166 164 161 157 150 142 137 131 122 115 102 87 65 40 26 12 4 359 354 351 349 346 344 343 342 341 341 341 340 339 339 339 340 341 341 341 342 341 341 340
197 197 197 212 215 237 251 242 246 250 146 126 164 170 218 220 150 205 165 87 94 97 93 144 161 161 160 157 163 174 180 182 181 179 178 176 174 174 174 173 172 172 172 171 170 170 170 169 170 173 175 175 173 173 173 173 174 174 171 170 163 156 151 147 140 132 123 102 79 43 6 356 351 347 344 341 337 333 331 329 329 328 327 328 329 329 329 329 330 330 331 331 331 331 332 332 333
196 197 212 226 227 244 262 258 248 316 340 213 188 217 246 204 120 107 115 120 131 126 125 147 155 155 156 159 167 176 181 183 183 182 180 179 177 177 178 177 176 176 175 175 175 174 174 174 175 179 182 182 181 179 178 179 182 181 177 175 169 164 163 161 157 151 144 134 147 302 314 322 331 332 329 326 323 321 321 320 321 321 322 323 323 323 323 322 323 323 324 324 324 324 325 326 328
174 191 209 213 13 280 260 236 110 93 277 247 177 222 261 238 202 145 140 164 160 152 155 161 162 159 162 167 172 179 183 185 185 184 183 181 181 181 181 181 180 180 179 179 179 179 179 180 182 183 186 187 186 185 184 185 187 186 183 179 177 176 177 177 177 177 180 197 229 264 291 307 316 319 318 317 317 319 320 320 319 318 317 316 315 315 315 315 316 318 320 321 322 324 325 327 328
153 194 194 116 43 329 269 259 238 227 259 252 182 215 227 216 220 148 153 185 181 177 170 164 171 170 170 174 177 182 186 187 187 187 185 184 185 185 185 184 184 184 184 183 183 183 183 186 188 188 190 191 191 189 190 191 191 190 189 187 187 188 189 191 192 194 202 216 238 268 285 297 305 308 310 313 316 319 320 318 316 312 310 309 309 310 312 315 316 318 321 322 325 328 329 330 331
170 273 193 139 221 226 202 230 253 240 249 257 221 222 221 215 212 160 176 196 188 180 175 172 180 180 177 177 177 182 187 189 191 190 188 188 188 188 188 187 187 187 188 187 187 187 187 189 191 191 193 195 196 195 195 195 196 196 196 195 195 196 198 199 200 205 216 227 244 262 271 284 295 302 309 314 318 319 318 317 313 310 309 309 310 313 315 317 320 322 324 326 328 330 330 331 331
310 297 229 198 251 236 208 215 242 243 248 264 245 222 220 219 207 184 189 195 183 175 178 186 187 184 181 177 176 182 188 192 193 192 191 192 192 192 191 190 190 190 191 191 190 191 192 193 194 193 195 197 199 200 200 200 200 201 202 201 201 204 204 204 209 216 224 232 241 251 264 280 294 304 311 316 317 317 316 315 313 311 312 313 315 317 319 320 322 324 326 327 328 329 329 330 330
186 207 206 198 191 242 279 242 232 239 246 258 257 250 241 202 196 198 195 190 180 174 180 188 186 184 182 178 180 187 191 194 195 194 194 195 194 194 193 193 194 194 194 194 194 194 196 197 197 196 198 200 202 203 204 204 204 204 205 206 207 208 208 210 216 221 225 232 240 249 264 281 296 306 311 314 314 315 314 314 314 314 315 316 317 319 320 321 322 323 324 325 326 327 328 328 328
193 199 199 200 193 183 233 234 213 218 247 252 266 272 266 133 137 202 188 180 174 172 174 176 178 180 181 182 187 191 194 196 197 196 196 197 197 196 195 196 197 197 197 197 197 198 200 199 199 200 201 203 205 207 207 207 208 207 207 209 211 211 212 215 219 222 225 232 240 251 265 282 296 304 309 311 312 313 313 314 314 315 316 316 317 317 318 319 320 321 322 323 324 325 326 327 327